Flag for Slovakia Weather past 2 weeks in Piešťany, Slovakia

Now
86 °F

Passing clouds.


Feels Like: 84 °F
Forecast: 60 / 89 °F
Wind: 6 mph from South

Location: Piestany

Current Time: Jul 3, 2015 at 3:06:35 PM

Latest Report: Jul 3, 2015 at 2:30 PM


Visibility: N/A

Pressure: 30.33 "Hg

Humidity: 29%

Dew point: 50 °F

Location of PiešťanyLocation

Historic Weather in Piešťany — Graph

°F

Piešťany temperature yesterday

Maximum temperature yesterday: 88 °F (at 4:30 PM)
Minimum temperature yesterday: 59 °F (at 3:00 AM)
Average temperature yesterday: 74 °F

Past Weeks' High & Low Weather Summary

 TemperatureHumidityPressure
High88 °F (Jul 2, 4:30 PM)100% (Jun 22, 6:30 AM)30.36 "Hg (Jun 22, 6:30 AM)
Low43 °F (Jun 22, 5:00 AM)25% (Jul 1, 5:00 PM)29.74 "Hg (Jun 23, 5:00 AM)
Average64 °F65%30.07 "Hg
* Reported Jun 18 2:00 PM — Jul 3 2:00 PM, Piešťany, Weather by CustomWeather, © 2015

Note: Actual official high and low records may vary slightly from our data, if they occured in-between our weather recording intervals... More about our weather records

Advertising

Piešťany weather history for previous 24 hours

 ConditionsComfort  
Time TempWeatherWind HumidityBarometerVisibility
2:00 PM
Fri, Jul 3
84 °FPassing clouds.6 mph31%30.33 "HgN/A
1:30 PM84 °FSunny.3 mph31%30.33 "Hg10 mi
1:00 PM84 °FPassing clouds.6 mph31%30.33 "HgN/A
12:30 PM84 °FPassing clouds.6 mph31%30.33 "HgN/A
12:00 PM82 °FSunny.6 mph32%30.36 "Hg10 mi
11:30 AM82 °FPassing clouds.8 mph32%30.36 "HgN/A
11:00 AM79 °FPassing clouds.7 mph37%30.36 "HgN/A
10:30 AM79 °FPassing clouds.6 mph37%30.36 "HgN/A
10:00 AM79 °FSunny.5 mph37%30.36 "Hg10 mi
9:30 AM77 °FSunny.5 mph39%30.36 "Hg10 mi
9:00 AM75 °FSunny.1 mph41%30.36 "Hg10 mi
8:30 AM73 °FSunny.3 mph53%30.36 "Hg10 mi
8:00 AM72 °FSunny.5 mph57%30.36 "Hg10 mi
7:30 AM68 °FSunny.3 mph64%30.33 "Hg10 mi
7:00 AM64 °FSunny.3 mph73%30.33 "Hg10 mi
6:00 AM63 °FSunny.2 mph77%30.33 "Hg10 mi
5:30 AM61 °FPassing clouds.3 mph77%30.30 "HgN/A
5:00 AM61 °FPassing clouds.5 mph77%30.30 "HgN/A
4:30 AM63 °FOvercast.5 mph73%30.30 "HgN/A
4:00 AM63 °FPassing clouds.3 mph73%30.30 "HgN/A
3:30 AM64 °FOvercast.5 mph68%30.30 "HgN/A
3:00 AM70 °FMild.5 mph53%30.30 "HgN/A
2:30 AM66 °FMild.6 mph64%30.30 "HgN/A
2:00 AM68 °FMild.6 mph60%30.30 "HgN/A
1:30 AM66 °FClear.5 mph68%30.27 "Hg10 mi
1:00 AM68 °FPassing clouds.6 mph64%30.27 "HgN/A
12:30 AM66 °FClear.2 mph73%30.27 "Hg10 mi
12:00 AM64 °FClear.2 mph78%30.27 "Hg10 mi
11:30 PM
Thu, Jul 2
66 °FClear.No wind73%30.27 "Hg10 mi
11:00 PM68 °FPassing clouds.3 mph73%30.27 "HgN/A
10:30 PM70 °FClear.1 mph69%30.24 "Hg10 mi
10:00 PM72 °FClear.1 mph65%30.24 "Hg10 mi
9:30 PM73 °FSunny.3 mph61%30.24 "Hg10 mi
9:00 PM77 °FSunny.6 mph51%30.21 "Hg10 mi
8:30 PM81 °FSunny.6 mph42%30.21 "Hg10 mi
8:00 PM84 °FSunny.2 mph37%30.18 "Hg10 mi
7:30 PM84 °FPassing clouds.5 mph33%30.18 "HgN/A
7:00 PM88 °FSunny.1 mph29%30.18 "Hg10 mi
6:30 PM88 °FSunny.2 mph27%30.18 "Hg10 mi
6:00 PM88 °FSunny.2 mph27%30.18 "Hg10 mi
5:30 PM88 °FPassing clouds.5 mph27%30.18 "HgN/A
5:00 PM86 °FPassing clouds.6 mph31%30.21 "HgN/A
4:30 PM88 °FPassing clouds.5 mph29%30.21 "HgN/A
4:00 PM86 °FSunny.3 mph27%30.21 "Hg10 mi
3:30 PM86 °FSunny.2 mph31%30.21 "Hg10 mi
3:00 PM86 °FSunny.3 mph31%30.21 "Hg10 mi
Weather by CustomWeather, © 2015

See weather overviewHow to use our weather pages